Погода в Туношна

Россия / Ярославская область     57°32′34″N   40°07′24″E
темп.,
°C
ветер,
м/с
пор.,
м/с
влажн.,
%
обл.,
%
осадки,
мм/ч
давл.,
гПа
погр.,
м
21 апреля, ср
ср2100:00+3в61489100 0.2 1017782
03:00+2в71596100 1.5 1013682
06:00+1в71796100 2.9 1009799
09:00+2вюв81796100 5.9 1006875
12:00+6вюв91891100 0.4 10021216
15:00+3ю91596100 2.0 1004807
18:00+3ююз6989100 0.1 1007929
21:00+3ююз4991100 0.2 1009574
22 апреля, чт
чт2200:00+3ююз3893100 0.0 1010344
03:00+3ююз3894100 0.1 1012281
06:00+4ю4893100 0.0 1012320
09:00+6ююз598198 0.0 1014512
12:00+9ююз6866100 0.4 10141266
15:00+10ююз6964100 0.8 10151512
18:00+10ююз597025 0.1 1016820
21:00+7ю5118249 0.1 1017306
23 апреля, пт
пт2300:00+7ююв511865 0.0 1016295
03:00+5ююв5129217 0.0 1016296
06:00+6ююв5129436 0.0 1016348
09:00+11ю6107520 0.0 1016537
12:00+15ю7116135 0.0 10161406
15:00+16ююз6115479 1.1 10151807
18:00+14ю5115669 0.4 1015820
21:00+10юв4127570 0.4 1015317
24 апреля, сб
сб2400:00+9юв513788 0.0 1014347
03:00+8юв514825 0.0 1012411
06:00+8юв514835 0.0 1011433
09:00+12юв813675 0.1 1009885
12:00+15юв8115647 0.8 10071748
15:00+14юв81260100 2.6 10051553
18:00+10ю51088100 2.9 10041032
21:00+6юз5695100 9.6 1003395
25 апреля, вс
вс2500:00+4зюз4996100 5.3 1004635
03:00+4зюз4897100 6.3 1004643
06:00+3зюз4897100 0.6 1004613
09:00+3юз5996100 1.9 1005557
12:00+4зюз5894100 0.8 1006640
15:00+6юз6975100 1.7 10071213
18:00+6юз5869100 0.3 1007906
21:00+2ююз49855 0.3 1008194